Content
SEND FEEDBACK

Daily
Averages
Monthly
Summary
United States of America

BROOMFIELD, COLORADO


Home > North America > United States > Colorado
Elevation: 1629 meters     Latitude: 39 54N     Longitude: 105 01W

WEATHER
 
SELECT A DAY
Number of Records: 149,884;   Date Range: 1/1/95 - 9/20/14
 
SHARE

PRINT THIS DATA

[ ← Previous Day ]
WEATHER ALMANAC - 3 JANUARY, 2013
[ Next Day → ]
[ °F ]   °C
Weather ElementAverageHighLow
Temperature-4.1 °C4 °C (2:53 pm)-11 °C (7:48 am)
Dewpoint-19.9 °C-16 °C (1:15 am)-26 °C (2:53 pm)
Humidity32.1 %53 % (7:48 am)10 % (2:53 pm)
Barometer1023 hPa1024.7 hPa (1:55 am)1021.3 hPa (1:53 pm)
Wind Speed3.5 km/h11.1 km/h (9:52 am)
Weather ElementAverage
Visibility50.1 km
Wind DirectionENE (78.6 °)

Weather ElementTotal
Precipitation---
Heating Degree Days21.8 (Base 18.3)
Averaged from 36 records on 3 January, 2013
WEATHER CONDITIONS BREAKOUT
WIND DIRECTION BREAKOUT
WEATHER BY HOUR - 3 JANUARY, 2013
[ °F ]   °C
Local TimeTemperatureDewpointHumidityBarometerVisibilityWind DirectionWind SpeedGust SpeedPrecipitationEventsConditions
12:36 AM-6 °C-17 °C42 %1024.4 hPa16.1 kmCalmOvercast
12:56 AM-6 °C-17 °C42 %1024.4 hPa16.1 kmCalmOvercast
1:15 AM-6 °C-16 °C46 %1024.4 hPa16.1 kmCalmOvercast
1:35 AM-6 °C-16 °C46 %1024.4 hPa16.1 kmCalmOvercast
1:55 AM-6 °C-16 °C46 %1024.7 hPa16.1 kmWSW (240°)7.4 km/hMostly Cloudy
2:16 AM-6 °C-17 °C42 %1024.7 hPa16.1 kmWest (280°)7.4 km/hMostly Cloudy
2:35 AM-6 °C-18 °C39 %1024.7 hPa16.1 kmCalmScattered Clouds
2:55 AM-7 °C-17 °C46 %1024.7 hPa16.1 kmCalmClear
3:16 AM-7 °C-19 °C39 %1024.7 hPa16.1 kmCalmClear
3:35 AM-8 °C-18 °C45 %1024.4 hPa16.1 kmWest (260°)5.6 km/hClear
3:56 AM-9 °C-18 °C49 %1024.4 hPa16.1 kmCalmClear
4:16 AM-8 °C-19 °C42 %1024.4 hPa16.1 kmSW (230°)5.6 km/hClear
4:36 AM-8 °C-19 °C42 %1024.4 hPa16.1 kmCalmClear
5:45 AM-9 °C-19 °C45 %1023.7 hPa48.3 kmCalmPartly Cloudy
6:46 AM-9 °C-20 °C41 %1023.7 hPa112.7 kmWSW (250°)5.6 km/hClear
7:48 AM-11 °C-19 °C53 %1023.7 hPa112.7 kmCalmClear
8:47 AM-8 °C-18 °C45 %1024 hPa112.7 kmCalmClear
9:52 AM-3 °C-19 °C29 %1024.4 hPa112.7 kmSSW (200°)11.1 km/hClear
10:48 AM-1 °C-19 °C25 %1024 hPa80.5 kmSSE (160°)9.3 km/hClear
11:49 AM2 °C-23 °C14 %1023.4 hPa80.5 kmSSE (150°)9.3 km/hClear
12:53 PM3 °C-24 °C12 %1022 hPa80.5 kmVariable7.4 km/hPartly Cloudy
1:53 PM3 °C-25 °C11 %1021.3 hPa112.7 kmSE (130°)11.1 km/hClear
2:53 PM4 °C-26 °C10 %1021.3 hPa112.7 kmESE (120°)9.3 km/hClear
3:47 PM3 °C-26 °C10 %1021.3 hPa112.7 kmESE (120°)5.6 km/hClear
4:47 PM2 °C-26 °C11 %1021.7 hPa112.7 kmCalmClear
5:47 PM-1 °C-22 °C19 %1022.4 hPa80.5 kmCalmClear
6:45 PM-4 °C-21 °C26 %1022.4 hPa80.5 kmVariable5.6 km/hClear
7:55 PM-3 °C-21 °C24 %1022 hPa80.5 kmWSW (240°)7.4 km/hClear
8:50 PM-3 °C-21 °C24 %1021.7 hPa32.2 kmSW (230°)9.3 km/hClear
9:50 PM-2 °C-22 °C21 %1021.7 hPa32.2 kmCalmClear
10:16 PM-5 °C-18 °C36 %1021.7 hPa16.1 kmSW (220°)7.4 km/hClear
10:36 PM-4 °C-19 °C31 %1021.7 hPa16.1 kmCalmClear
10:56 PM-3 °C-20 °C26 %1022 hPa16.1 kmCalmClear
11:16 PM-3 °C-20 °C26 %1022 hPa16.1 kmCalmClear
11:36 PM-3 °C-20 °C26 %1022 hPa16.1 kmCalmClear
11:56 PM-3 °C-20 °C26 %1021.7 hPa16.1 kmCalmClear
Hourly data recorded from KBJC, located 0 kilometers away from Broomfield, Colorado







STORIES FROM OUR PARTNERS